TimeCDT,TemperatureF,Dew PointF,Humidity,Sea Level PressureIn,VisibilityMPH,Wind Direction,Wind SpeedMPH,Gust SpeedMPH,PrecipitationIn,Events,Conditions,WindDirDegrees,DateUTC
12:53 AM,69.1,64.9,87,30.08,10.0,SE,5.8,-,N/A,,Clear,140,2013-08-17 05:53:00
1:53 AM,69.1,64.9,87,30.07,10.0,ESE,8.1,-,N/A,,Clear,120,2013-08-17 06:53:00
2:53 AM,68.0,64.9,90,30.07,10.0,ESE,6.9,-,N/A,,Clear,110,2013-08-17 07:53:00
3:53 AM,66.0,64.0,93,30.07,10.0,Calm,Calm,-,N/A,,Clear,0,2013-08-17 08:53:00
4:53 AM,66.0,63.0,90,30.08,10.0,Calm,Calm,-,N/A,,Partly Cloudy,0,2013-08-17 09:53:00
5:53 AM,66.0,61.0,84,30.07,10.0,SE,9.2,-,N/A,,Clear,130,2013-08-17 10:53:00
6:53 AM,64.9,61.0,87,30.09,10.0,SE,5.8,-,N/A,,Scattered Clouds,130,2013-08-17 11:53:00
7:53 AM,66.9,61.0,81,30.11,10.0,South,5.8,-,N/A,,Mostly Cloudy,170,2013-08-17 12:53:00
8:53 AM,71.1,60.1,68,30.11,10.0,South,9.2,-,N/A,,Mostly Cloudy,180,2013-08-17 13:53:00
9:53 AM,75.0,60.1,60,30.11,10.0,South,11.5,-,N/A,,Mostly Cloudy,180,2013-08-17 14:53:00
10:53 AM,75.9,61.0,60,30.12,10.0,South,8.1,-,N/A,,Clear,170,2013-08-17 15:53:00
11:53 AM,79.0,61.0,54,30.09,10.0,South,10.4,-,N/A,,Scattered Clouds,180,2013-08-17 16:53:00
12:53 PM,81.0,61.0,50,30.06,-9999.0,South,9.2,-,N/A,,Clear,170,2013-08-17 17:53:00
1:53 PM,82.0,61.0,49,30.06,-9999.0,Calm,Calm,-,N/A,,Partly Cloudy,0,2013-08-17 18:53:00
2:53 PM,84.0,61.0,46,30.04,-9999.0,SE,6.9,-,N/A,,Clear,140,2013-08-17 19:53:00
3:53 PM,86.0,62.1,44,30.02,-9999.0,SE,9.2,-,N/A,,Mostly Cloudy,130,2013-08-17 20:53:00
4:53 PM,84.9,61.0,44,30.01,-9999.0,East,10.4,-,N/A,,Clear,100,2013-08-17 21:53:00
5:53 PM,84.9,61.0,44,30.00,-9999.0,East,12.7,-,N/A,,Clear,100,2013-08-17 22:53:00
6:53 PM,82.0,61.0,49,30.00,-9999.0,SE,12.7,-,N/A,,Clear,140,2013-08-17 23:53:00
7:53 PM,79.0,62.1,56,30.01,-9999.0,SE,8.1,-,N/A,,Partly Cloudy,140,2013-08-18 00:53:00
8:53 PM,77.0,64.0,64,30.01,-9999.0,ESE,9.2,-,N/A,,Mostly Cloudy,110,2013-08-18 01:53:00
9:53 PM,75.9,63.0,64,30.03,-9999.0,ESE,9.2,-,N/A,,Mostly Cloudy,110,2013-08-18 02:53:00
10:53 PM,73.0,64.0,73,30.04,-9999.0,ESE,8.1,-,N/A,,Mostly Cloudy,120,2013-08-18 03:53:00
11:53 PM,72.0,64.0,76,30.05,-9999.0,ESE,6.9,-,N/A,,Scattered Clouds,120,2013-08-18 04:53:00